Temp     Hi    Low   Out    Dew  Wind  Wind   Wind    Hi    Hi   Wind   Heat    THW   THSW                Rain  Solar   Solar Hi Solar   UV    UV    Hi     Heat    Cool    In     In    In     In           Wind  Wind    ISS   Arc.
  Date    Time     Out   Temp   Temp   Hum    Pt. Speed   Dir    Run Speed   Dir  Chill  Index  Index  Index   Bar    Rain  Rate   Rad.  Energy    Rad.  Index  Dose   UV     D-D     D-D    Temp   Hum    Dew   Heat     ET   Samp   Tx   Recept  Int.
---------------------------------------------------------------------------------------------------------------------------------------------------------------------------------------------------------------------------------------------------------
 5/24/17 12:30a   63.1   64.1   62.7    48   43.1   0.0   ---   0.00   0.0   ---   63.1   61.0   61.0   56.5  29.797  0.00  0.00     0     0.00      0     0.0  0.00   0.0   0.040   0.000   78.4    34   47.7   77.1   0.000   677    2    100.0   30 
 5/24/17  1:00a   63.2   64.4   63.1    47   42.6   0.0   WNW   0.00   2.0   WNW   63.2   61.1   61.1   56.6  29.790  0.00  0.00     0     0.00      0     0.0  0.00   0.0   0.037   0.000   78.2    35   48.3   76.9   0.002   682    2    100.0   30 
 5/24/17  1:30a   61.7   63.3   60.4    51   43.4   0.0   ---   0.00   0.0   ---   61.7   59.9   59.9   55.4  29.783  0.00  0.00     0     0.00      0     0.0  0.00   0.0   0.069   0.000   77.9    35   48.0   76.6   0.000   672    2    100.0   30 
 5/24/17  2:00a   59.0   62.2   59.0    57   43.8   0.0   ---   0.00   0.0   ---   59.0   57.5   57.5   53.0  29.771  0.00  0.00     0     0.00      0     0.0  0.00   0.0   0.125   0.000   77.7    35   47.9   76.5   0.002   683    2    100.0   30 
 5/24/17  2:30a   60.2   60.2   58.6    50   41.5   0.0   ---   0.00   0.0   ---   60.2   58.2   58.2   53.6  29.768  0.00  0.00     0     0.00      0     0.0  0.00   0.0   0.100   0.000   77.5    35   47.7   76.3   0.000   682    2    100.0   30 
 5/24/17  3:00a   56.8   60.2   56.8    58   42.2   0.0   ---   0.00   0.0   ---   56.8   55.4   55.4   50.9  29.760  0.00  0.00     0     0.00      0     0.0  0.00   0.0   0.171   0.000   77.3    35   47.5   76.2   0.001   669    2    100.0   30 
 5/24/17  3:30a   57.8   59.9   56.8    53   40.8   0.0   ---   0.00   0.0   ---   57.8   56.0   56.0   51.4  29.754  0.00  0.00     0     0.00      0     0.0  0.00   0.0   0.150   0.000   77.0    35   47.2   76.0   0.000   686    2    100.0   30 
 5/24/17  4:00a   57.5   58.4   56.8    53   40.5   0.0   ---   0.00   0.0   ---   57.5   55.8   55.8   51.2  29.750  0.00  0.00     0     0.00      0     0.0  0.00   0.0   0.156   0.000   76.6    35   46.9   75.5   0.001   680    2    100.0   30 
 5/24/17  4:30a   57.8   57.8   56.1    51   39.8   0.0   ---   0.00   0.0   ---   57.8   55.9   55.9   51.2  29.736  0.00  0.00     0     0.00      0     0.0  0.00   0.0   0.150   0.000   76.4    35   46.7   75.3   0.000   673    2    100.0   30 
 5/24/17  5:00a   56.3   57.7   55.8    55   40.3   0.0   ---   0.00   0.0   ---   56.3   54.7   54.7   50.1  29.727  0.00  0.00     0     0.00      0     0.0  0.00   0.0   0.181   0.000   76.1    35   46.5   74.9   0.001   684    2    100.0   30 
 5/24/17  5:30a   53.7   56.2   53.6    58   39.3   0.0   ---   0.00   0.0   ---   53.7   52.4   52.4   47.7  29.725  0.00  0.00     0     0.00      0     0.0  0.00   0.0   0.235   0.000   75.7    35   46.1   74.5   0.000   674    2    100.0   30 
 5/24/17  6:00a   55.8   56.3   53.0    55   39.9   0.0   ---   0.00   0.0   ---   55.8   54.2   54.2   49.6  29.730  0.00  0.00     2     0.09      7     0.0  0.00   0.0   0.192   0.000   75.6    35   46.0   74.4   0.000   679    2    100.0   30 
 5/24/17  6:30a   55.2   56.1   52.2    59   41.1   0.0   ---   0.00   0.0   ---   55.2   53.9   53.9   49.6  29.727  0.00  0.00    14     0.60     19     0.0  0.00   0.0   0.204   0.000   75.2    35   45.7   74.0   0.000   684    2    100.0   30 
 5/24/17  7:00a   59.5   59.5   55.3    52   41.9   0.0   ---   0.00   0.0   ---   59.5   57.7   57.7   53.7  29.724  0.00  0.00    25     1.08     32     0.0  0.00   0.0   0.115   0.000   75.0    35   45.5   73.8   0.001   672    2    100.0   30 
 5/24/17  7:30a   66.2   66.2   59.5    50   47.0   0.0   ---   0.00   0.0   ---   66.2   64.6   64.6   67.7  29.714  0.00  0.00   148     6.36    346     0.0  0.00   0.0   0.000   0.025   74.9    35   45.4   73.7   0.000   681    2    100.0   30 
 5/24/17  8:00a   69.5   69.5   66.3    42   45.4   0.0   ---   0.00   0.0   ---   69.5   67.1   67.1   74.5  29.710  0.00  0.00   331    14.23    355     0.5  0.08   0.8   0.000   0.094   74.7    35   45.2   73.5   0.006   685    2    100.0   30 
 5/24/17  8:30a   72.2   72.4   69.5    40   46.5   1.0   WNW   0.50   6.0   WNW   72.2   70.4   70.4   78.5  29.709  0.00  0.00   418    17.98    468     1.2  0.19   1.6   0.000   0.150   75.0    35   45.5   73.8   0.000   668    2    100.0   30 
 5/24/17  9:00a   73.7   73.8   72.3    37   45.8   3.0   WNW   1.50   8.0   WNW   73.7   72.4   72.4   81.0  29.698  0.00  0.00   503    21.63    552     2.1  0.34   2.6   0.000   0.181   75.4    35   45.8   74.2   0.012   685    2    100.0   30 
 5/24/17  9:30a   74.9   75.0   73.7    35   45.4   4.0    NW   2.00  10.0    NW   74.9   73.7   73.7   82.3  29.696  0.00  0.00   606    26.06    679     3.3  0.53   4.0   0.000   0.206   75.9    34   45.5   74.6   0.000   681    2    100.0   30 
 5/24/17 10:00a   76.0   76.4   74.9    34   45.6   6.0   NNW   3.00  13.0   NNW   76.0   74.7   74.7   84.4  29.686  0.00  0.00   748    32.17    796     4.7  0.76   5.1   0.000   0.229   76.6    34   46.1   75.5   0.020   676    2    100.0   30 
 5/24/17 10:30a   78.0   78.0   75.8    35   48.1   5.0   NNW   2.50  13.0   NNW   78.0   76.7   76.7   85.6  29.690  0.00  0.00   762    32.77    846     5.8  0.93   6.4   0.000   0.271   77.3    34   46.7   76.2   0.000   684    2    100.0   30 
 5/24/17 11:00a   77.6   78.2   77.1    36   48.5   5.0   NNW   2.50  12.0   NNW   77.6   76.5   76.5   86.3  29.683  0.00  0.00   684    29.42    856     5.8  0.93   6.6   0.000   0.262   78.2    35   48.3   76.9   0.021   674    2    100.0   30 
 5/24/17 11:30a   79.8   80.2   77.6    33   48.1   4.0   NNW   2.00  13.0   WNW   79.8   78.2   78.2   87.7  29.683  0.00  0.00   653    28.08    900     6.0  0.96   8.4   0.000   0.308   78.8    34   48.1   77.5   0.000   681    2    100.0   30 
 5/24/17 12:00p   80.5   81.4   79.6    32   47.9   4.0   WNW   2.00  14.0   WNW   80.5   78.7   78.7   88.5  29.676  0.00  0.00   864    37.16    995     8.0  1.29   9.4   0.000   0.323   79.0    34   48.2   77.7   0.021   684    2    100.0   30 
 5/24/17 12:30p   81.0   81.0   79.7    31   47.5  10.0   NNW   5.00  18.0   NNW   79.5   79.1   77.6   85.0  29.668  0.00  0.00   977    42.02   1083     9.1  1.46  10.1   0.000   0.333   79.5    32   47.1   77.8   0.000   670    2    100.0   30 
 5/24/17  1:00p   80.8   81.2   80.1    31   47.3  10.0   NNW   5.00  19.0   NNW   79.3   78.9   77.4   85.5  29.656  0.00  0.00   924    39.74   1071     8.9  1.43  10.4   0.000   0.329   80.1    32   47.6   78.3   0.029   685    2    100.0   30 
 5/24/17  1:30p   80.8   81.9   79.5    29   45.6  10.0   NNW   5.00  18.0   NNW   79.3   78.7   77.2   86.1  29.664  0.00  0.00   799    34.36   1099     7.9  1.27  10.4   0.000   0.329   80.5    30   46.2   78.5   0.000   679    2    100.0   30 
 5/24/17  2:00p   84.1   84.3   79.8    20   38.7  10.0   NNW   5.00  22.0   NNW   83.0   81.1   80.0   87.3  29.659  0.00  0.00   969    41.67   1023     9.2  1.48   9.8   0.000   0.398   80.6    27   43.5   78.3   0.029   676    2    100.0   30 
 5/24/17  2:30p   83.2   85.2   82.8    27   45.7   9.0     W   4.50  22.0   NNW   82.4   80.9   80.1   88.5  29.646  0.00  0.00   952    40.94   1037     8.0  1.29   9.3   0.000   0.379   81.0    27   43.9   78.6   0.000   670    2    100.0   30 
 5/24/17  3:00p   83.1   83.8   82.5    25   43.6  10.0    NW   5.00  22.0   NNW   81.9   80.5   79.3   87.2  29.629  0.00  0.00   881    37.89    991     7.4  1.19   8.2   0.000   0.377   81.6    27   44.4   79.3   0.030   629    2     94.3   30 
 5/24/17  3:30p   84.5   84.9   82.9    21   40.3  10.0   WNW   5.00  21.0   NNW   83.5   81.5   80.5   88.8  29.624  0.00  0.00   833    35.82    893     6.2  1.00   7.1   0.000   0.406   81.8    24   41.5   79.2   0.000   639    2     95.8   30 
 5/24/17  4:00p   82.9   84.7   82.5    25   43.5  11.0   WNW   5.50  27.0   NNW   81.4   80.3   78.8   87.4  29.613  0.00  0.00   779    33.50    816     5.1  0.82   5.7   0.000   0.373   82.0    26   43.7   79.6   0.029   685    2    100.0   30 
 5/24/17  4:30p   83.1   83.9   82.2    22   40.3  10.0   WNW   5.00  22.0   WNW   81.9   80.3   79.1   87.7  29.609  0.00  0.00   674    28.99    752     3.7  0.59   4.5   0.000   0.377   82.1    25   42.8   79.6   0.000   672    2    100.0   30 
 5/24/17  5:00p   79.7   83.1   79.7    31   46.4  13.0    NW   6.50  25.0   WNW   77.1   77.9   75.3   83.6  29.593  0.00  0.00   592    25.46    652     2.6  0.42   3.2   0.000   0.306   82.0    28   45.7   79.9   0.025   683    2    100.0   30 
 5/24/17  5:30p   79.1   79.7   78.8    35   49.1  14.0   NNW   7.00  27.0   NNW   76.2   77.9   75.0   83.0  29.592  0.00  0.00   493    21.20    536     1.7  0.27   2.1   0.000   0.294   81.8    30   47.3   79.9   0.000   682    2    100.0   30 
 5/24/17  6:00p   78.7   79.2   77.6    34   48.0  12.0   NNW   6.00  27.0   NNW   76.3   77.4   75.0   82.9  29.596  0.00  0.00   392    16.86    439     0.9  0.14   1.3   0.000   0.285   81.8    30   47.3   79.9   0.020   674    2    100.0   30 
 5/24/17  6:30p   76.1   78.9   76.1    33   44.9   9.0   WNW   4.50  21.0   NNW   74.8   74.8   73.5   79.9  29.593  0.00  0.00   277    11.91    341     0.2  0.03   0.6   0.000   0.231   81.4    29   46.1   79.3   0.000   686    2    100.0   30 
 5/24/17  7:00p   74.5   76.1   74.5    32   42.7  11.0    NW   5.50  18.0   NNW   72.1   73.0   70.6   70.0  29.597  0.00  0.00   177     7.61    236     0.0  0.00   0.0   0.000   0.198   80.5    28   44.4   78.3   0.012   679    2    100.0   30 
 5/24/17  7:30p   71.7   74.6   71.7    26   35.0  10.0    NW   5.00  19.0   NNW   69.6   68.3   66.2   62.9  29.608  0.00  0.00    54     2.32    113     0.0  0.00   0.0   0.000   0.140   79.7    25   40.8   77.3   0.000   677    2    100.0   30 
 5/24/17  8:00p   71.3   71.6   71.3    20   28.1  11.0    NW   5.50  17.0   WNW   68.7   67.2   64.6   60.4  29.609  0.00  0.00     9     0.39     16     0.0  0.00   0.0   0.000   0.131   79.9    26   41.9   77.5   0.008   685    2    100.0   30 
 5/24/17  8:30p   70.3   71.4   70.3    18   24.8  10.0   WNW   5.00  22.0    NW   68.2   65.7   63.6   59.0  29.617  0.00  0.00     0     0.00      0     0.0  0.00   0.0   0.000   0.110   80.3    22   38.0   77.5   0.000   671    2    100.0   30 
 5/24/17  9:00p   68.8   70.3   68.6    18   23.5   8.0   WNW   4.00  15.0   WNW   68.1   63.9   63.2   58.2  29.617  0.00  0.00     0     0.00      0     0.0  0.00   0.0   0.000   0.079   79.0    20   34.5   76.1   0.007   684    2    100.0   30 
 5/24/17  9:30p   69.4   70.1   68.9    15   19.7   9.0   WNW   4.50  18.0   WNW   68.0   64.3   62.9   58.0  29.623  0.00  0.00     0     0.00      0     0.0  0.00   0.0   0.000   0.092   78.6    20   34.2   76.0   0.000   683    2    100.0   30 
 5/24/17 10:00p   68.4   69.4   68.1    20   25.7   9.0     W   4.50  21.0     W   67.0   63.6   62.2   57.5  29.626  0.00  0.00     0     0.00      0     0.0  0.00   0.0   0.000   0.071   78.4    22   36.4   76.1   0.008   671    2    100.0   30 
 5/24/17 10:30p   66.4   68.3   66.4    21   25.2   5.0     W   2.50  14.0     W   66.4   61.4   61.4   56.1  29.629  0.00  0.00     0     0.00      0     0.0  0.00   0.0   0.000   0.029   78.2    24   38.4   76.2   0.000   684    2    100.0   30 
 5/24/17 11:00p   63.8   66.3   63.6    23   25.3   0.0   ---   0.00   0.0   ---   63.8   59.1   59.1   53.8  29.627  0.00  0.00     0     0.00      0     0.0  0.00   0.0   0.025   0.000   77.0    26   39.5   75.7   0.004   678    2    100.0   30 
 5/24/17 11:30p   61.1   63.8   61.1    25   25.0   0.0   ---   0.00   0.0   ---   61.1   56.8   56.8   51.5  29.626  0.00  0.00     0     0.00      0     0.0  0.00   0.0   0.081   0.000   76.4    25   38.0   74.9   0.000   677    2    100.0   30 
 5/25/17 12:00a   58.4   61.1   58.3    25   22.7   0.0   ---   0.00   0.0   ---   58.4   54.4   54.4   49.0  29.627  0.00  0.00     0     0.00      0     0.0  0.00   0.0   0.137   0.000   75.6    30   42.0   74.0   0.002   684    2    100.0   30 
 5/25/17 12:30a   56.9   58.7   56.3    27   23.2   0.0   ---   0.00   0.0   ---   56.9   53.4   53.4   48.0  29.625  0.00  0.00     0     0.00      0     0.0  0.00   0.0   0.169   0.000   75.6    30   42.0   74.0   0.000   672    2    100.0   30 
 5/25/17  1:00a   54.8   57.4   54.8    30   23.9   0.0   ---   0.00   0.0   ---   54.8   51.9   51.9   46.5  29.618  0.00  0.00     0     0.00      0     0.0  0.00   0.0   0.213   0.000   75.4    30   41.8   73.8   0.002   679    2    100.0   30 
 5/25/17  1:30a   53.9   55.1   53.5    31   23.9   0.0   ---   0.00   0.0   ---   53.9   51.2   51.2   45.8  29.614  0.00  0.00     0     0.00      0     0.0  0.00   0.0   0.231   0.000   75.4    30   41.8   73.8   0.000   682    2    100.0   30 
 5/25/17  2:00a   53.4   54.4   53.4    33   25.0   0.0   ---   0.00   0.0   ---   53.4   50.9   50.9   45.6  29.613  0.00  0.00     0     0.00      0     0.0  0.00   0.0   0.242   0.000   75.2    30   41.6   73.5   0.002   673    2    100.0   30 
 5/25/17  2:30a   54.6   54.7   53.0    33   26.0   0.0   ---   0.00   0.0   ---   54.6   51.9   51.9   46.6  29.613  0.00  0.00     0     0.00      0     0.0  0.00   0.0   0.217   0.000   75.0    30   41.5   73.3   0.000   684    2    100.0   30 
 5/25/17  3:00a   56.8   57.6   54.1    27   23.1   0.0   ---   0.00   0.0   ---   56.8   53.3   53.3   47.9  29.610  0.00  0.00     0     0.00      0     0.0  0.00   0.0   0.171   0.000   74.7    30   41.2   73.0   0.002   684    2    100.0   30 
 5/25/17  3:30a   54.6   56.8   54.6    33   26.0   0.0   ---   0.00   0.0   ---   54.6   51.9   51.9   46.6  29.611  0.00  0.00     0     0.00      0     0.0  0.00   0.0   0.217   0.000   74.5    30   41.0   72.8   0.000   667    2    100.0   30 
 5/25/17  4:00a   53.6   54.6   53.6    36   27.3   0.0   ---   0.00   0.0   ---   53.6   51.2   51.2   46.0  29.609  0.00  0.00     0     0.00      0     0.0  0.00   0.0   0.238   0.000   74.2    30   40.8   72.5   0.002   684    2    100.0   30 
 5/25/17  4:30a   51.6   53.9   51.6    41   28.6   0.0   ---   0.00   0.0   ---   51.6   49.8   49.8   44.6  29.608  0.00  0.00     0     0.00      0     0.0  0.00   0.0   0.279   0.000   74.0    30   40.6   72.3   0.000   683    2    100.0   30 
 5/25/17  5:00a   52.8   52.8   51.6    45   32.0   0.0   ---   0.00   0.0   ---   52.8   51.0   51.0   46.1  29.603  0.00  0.00     0     0.00      0     0.0  0.00   0.0   0.254   0.000   73.6    30   40.2   71.7   0.002   672    2    100.0   30 
 5/25/17  5:30a   51.4   53.0   50.1    47   31.8   0.0   ---   0.00   0.0   ---   51.4   49.9   49.9   44.9  29.602  0.00  0.00     0     0.00      0     0.0  0.00   0.0   0.283   0.000   73.3    30   40.0   71.2   0.000   686    2    100.0   30 
 5/25/17  6:00a   49.1   51.6   49.1    53   32.7   0.0   ---   0.00   0.0   ---   49.1   48.0   48.0   43.1  29.604  0.00  0.00     2     0.09      7     0.0  0.00   0.0   0.331   0.000   73.1    30   39.8   70.9   0.000   680    2    100.0   30 
 5/25/17  6:30a   50.6   51.5   49.1    54   34.6   0.0   ---   0.00   0.0   ---   50.6   49.5   49.5   44.9  29.610  0.00  0.00    12     0.52     16     0.0  0.00   0.0   0.300   0.000   72.8    31   40.4   70.5   0.000   675    2    100.0   30 
 5/25/17  7:00a   55.2   55.2   49.9    50   36.9   0.0   ---   0.00   0.0   ---   55.2   53.4   53.4   49.1  29.608  0.00  0.00    21     0.90     25     0.0  0.00   0.0   0.204   0.000   72.6    31   40.2   70.2   0.001   684    2    100.0   30 
 5/25/17  7:30a   60.3   60.3   55.2    43   37.7   0.0   ---   0.00   0.0   ---   60.3   57.8   57.8   59.3  29.608  0.00  0.00   107     4.60    260     0.0  0.00   0.0   0.098   0.000   72.6    31   40.2   70.2   0.000   679    2    100.0   30 
 5/25/17  8:00a   63.6   63.6   60.4    36   36.1   0.0   ---   0.00   0.0   ---   63.6   60.5   60.5   66.8  29.607  0.00  0.00   312    13.42    364     0.4  0.06   0.8   0.029   0.000   72.8    31   40.4   70.5   0.005   676    2    100.0   30 
 5/25/17  8:30a   65.5   65.6   63.6    30   33.2   1.0     W   0.50   9.0    NW   65.5   61.8   61.8   69.2  29.607  0.00  0.00   416    17.89    464     1.2  0.19   1.7   0.000   0.010   73.0    32   41.4   70.9   0.000   683    2    100.0   30 
 5/25/17  9:00a   66.0   66.3   65.5    27   31.0   5.0   NNW   2.50  12.0   NNW   66.0   61.7   61.7   69.6  29.605  0.00  0.00   517    22.23    564     2.2  0.35   2.7   0.000   0.021   73.1    31   40.7   71.0   0.012   677    2    100.0   30 
 5/25/17  9:30a   67.0   67.1   65.8    26   31.0   6.0   NNW   3.00  15.0   NNW   67.0   62.5   62.5   70.6  29.607  0.00  0.00   613    26.36    659     3.2  0.51   3.8   0.000   0.042   73.5    27   37.5   71.2   0.000   676    2    100.0   30 
 5/25/17 10:00a   67.6   67.6   66.8    24   29.5  10.0   NNW   5.00  18.0   NNW   65.5   63.1   61.0   68.0  29.604  0.00  0.00   702    30.19    744     4.4  0.71   5.0   0.000   0.054   73.8    26   36.8   71.5   0.020   685    2    100.0   30 
 5/25/17 10:30a   67.7   67.8   67.1    25   30.6  11.0   NNW   5.50  20.0   NNW   65.1   63.3   60.7   67.5  29.604  0.00  0.00   783    33.67    819     5.7  0.92   6.3   0.000   0.056   73.8    25   35.8   71.4   0.000   675    2    100.0   30 
 5/25/17 11:00a   66.5   67.8   66.5    25   29.6  13.0   NNW   6.50  23.0   NNW   62.7   61.8   58.0   64.3  29.612  0.00  0.00   852    36.64    881     6.9  1.11   7.5   0.000   0.031   73.8    25   35.8   71.4   0.026   680    2    100.0   30 
 5/25/17 11:30a   66.8   67.1   66.4    30   34.3  11.0   NNW   5.50  19.0   NNW   64.2   63.2   60.6   67.4  29.620  0.00  0.00   909    39.09    932     8.0  1.29   8.4   0.000   0.038   74.0    26   36.9   71.8   0.000   684    2    100.0   30 
 5/25/17 12:00p   66.5   66.9   66.1    30   34.1  12.0   NNW   6.00  22.0   NNW   63.2   62.9   59.6   66.1  29.630  0.00  0.00   950    40.86    967     8.8  1.41   9.1   0.000   0.031   74.0    26   36.9   71.8   0.028   670    2    100.0   30 
 5/25/17 12:30p   66.6   67.2   66.2    29   33.3  12.0   NNW   6.00  21.0   NNW   63.3   62.8   59.5   65.8  29.629  0.00  0.00   978    42.06    988     9.4  1.51   9.6   0.000   0.033   74.2    26   37.1   72.1   0.000   683    2    100.0   30 
 5/25/17  1:00p   67.0   67.2   66.4    30   34.5  13.0   NNW   6.50  23.0   NNW   63.3   63.4   59.7   65.9  29.633  0.00  0.00   990    42.58    995     9.6  1.54   9.7   0.000   0.042   74.9    27   38.7   72.9   0.029   686    2    100.0   30 
 5/25/17  1:30p   67.5   68.0   66.8    31   35.8  13.0   NNW   6.50  24.0   NNW   63.9   64.0   60.4   66.7  29.639  0.00  0.00   988    42.49    993     9.5  1.53   9.6   0.000   0.052   75.2    28   39.8   73.4   0.000   670    2    100.0   30 
 5/25/17  2:00p   67.6   68.3   66.7    33   37.5  13.0   NNW   6.50  24.0   NNW   64.0   64.3   60.7   67.3  29.643  0.00  0.00   971    41.76    984     9.1  1.46   9.3   0.000   0.054   75.6    29   41.1   74.0   0.030   681    2    100.0   30 
 5/25/17  2:30p   67.7   68.5   67.4    33   37.5  14.0   NNW   7.00  22.0   NNW   63.7   64.4   60.4   67.0  29.638  0.00  0.00   940    40.43    960     8.3  1.33   8.7   0.000   0.056   75.7    29   41.2   74.1   0.000   684    2    100.0   30 
 5/25/17  3:00p   69.4   69.5   67.6    32   38.2  12.0   NNW   6.00  21.0   NNW   66.3   66.0   62.9   70.3  29.635  0.00  0.00   895    38.49    919     7.3  1.17   7.8   0.000   0.092   76.1    29   41.5   74.6   0.028   674    2    100.0   30 
 5/25/17  3:30p   68.9   69.6   68.1    32   37.8  13.0   NNW   6.50  23.0   NNW   65.3   65.5   61.9   69.3  29.634  0.00  0.00   837    36.00    870     6.2  1.00   6.7   0.000   0.081   76.4    29   41.8   75.0   0.000   685    2    100.0   30 
 5/25/17  4:00p   68.8   69.1   68.0    35   40.0  12.0   NNW   6.00  21.0    NW   65.7   65.8   62.7   70.7  29.632  0.00  0.00   767    32.99    802     5.0  0.80   5.6   0.000   0.079   76.6    29   42.0   75.3   0.026   677    2    100.0   30 
 5/25/17  4:30p   67.6   68.8   67.6    36   39.7  13.0   NNW   6.50  23.0   NNW   64.0   64.7   61.1   69.0  29.630  0.00  0.00   689    29.63    729     3.8  0.61   4.3   0.000   0.054   76.8    29   42.1   75.5   0.000   675    2    100.0   30 
 5/25/17  5:00p   67.4   67.7   66.9    37   40.2  14.0   NNW   7.00  24.0   NNW   63.3   64.6   60.5   68.4  29.628  0.00  0.00   600    25.80    645     2.7  0.43   3.2   0.000   0.050   77.0    29   42.3   75.8   0.022   685    2    100.0   30 
 5/25/17  5:30p   66.7   67.6   66.5    39   40.9  12.0   NNW   6.00  22.0   NNW   63.4   64.1   60.8   69.2  29.630  0.00  0.00   502    21.59    550     1.8  0.29   2.2   0.000   0.035   77.2    30   43.4   75.9   0.000   672    2    100.0   30 
 5/25/17  6:00p   65.9   67.0   65.7    41   41.5  11.0   NNW   5.50  20.0   NNW   63.2   63.4   60.7   68.8  29.631  0.00  0.00   400    17.20    452     1.0  0.16   1.3   0.000   0.019   77.2    30   43.4   75.9   0.016   681    2    100.0   30 
 5/25/17  6:30p   65.1   65.9   64.7    42   41.4  11.0   NNW   5.50  19.0   NNW   62.2   62.7   59.8   66.3  29.639  0.00  0.00   294    12.64    348     0.3  0.05   0.7   0.000   0.002   77.0    31   44.0   75.8   0.000   685    2    100.0   30 
 5/25/17  7:00p   63.9   65.1   63.8    43   41.0   9.0    NW   4.50  19.0   NNW   62.3   61.5   59.9   59.3  29.649  0.00  0.00   182     7.83    239     0.0  0.00   0.0   0.023   0.000   76.6    30   42.8   75.3   0.010   673    2    100.0   30 
 5/25/17  7:30p   61.8   63.9   61.8    45   40.2   5.0    NW   2.50  11.0    NW   61.8   59.5   59.5   55.9  29.652  0.00  0.00    47     2.02    123     0.0  0.00   0.0   0.067   0.000   76.4    31   43.5   75.1   0.000   684    2    100.0   30 
 5/25/17  8:00p   60.1   61.7   60.1    51   41.9   4.0   NNW   2.00  11.0   NNW   60.1   58.2   58.2   53.8  29.660  0.00  0.00     8     0.34     14     0.0  0.00   0.0   0.102   0.000   76.4    31   43.5   75.1   0.003   680    2    100.0   30 
 5/25/17  8:30p   59.3   60.1   59.3    51   41.2   1.0   NNW   0.50   7.0   NNW   59.3   57.4   57.4   52.8  29.666  0.00  0.00     0     0.00      0     0.0  0.00   0.0   0.119   0.000   76.8    34   46.3   75.7   0.000   678    2    100.0   30 
 5/25/17  9:00p   59.1   59.2   58.0    53   42.0   1.0   NNW   0.50  15.0   WNW   59.1   57.3   57.3   52.7  29.677  0.00  0.00     0     0.00      0     0.0  0.00   0.0   0.123   0.000   77.0    34   46.5   76.0   0.001   682    2    100.0   30 
 5/25/17  9:30p   55.3   59.1   55.3    65   43.7   4.0     W   2.00  15.0     W   55.0   54.3   54.0   49.5  29.692  0.00  0.00     0     0.00      0     0.0  0.00   0.0   0.202   0.000   77.2    34   46.7   76.1   0.000   674    2    100.0   30 
 5/25/17 10:00p   53.9   55.3   53.9    68   43.6   3.0     W   1.50  12.0     W   53.9   53.1   53.1   48.6  29.703  0.00  0.00     0     0.00      0     0.0  0.00   0.0   0.231   0.000   77.0    34   46.5   76.0   0.002   682    2    100.0   30 
 5/25/17 10:30p   53.8   54.1   53.8    69   43.9   1.0   WSW   0.50   6.0     W   53.8   53.0   53.0   48.5  29.713  0.00  0.00     0     0.00      0     0.0  0.00   0.0   0.233   0.000   77.0    34   46.5   76.0   0.000   685    2    100.0   30 
 5/25/17 11:00p   53.7   53.8   53.3    69   43.8   1.0   WSW   0.50   6.0   WSW   53.7   52.9   52.9   48.4  29.715  0.00  0.00     0     0.00      0     0.0  0.00   0.0   0.235   0.000   76.4    34   45.9   75.2   0.001   670    2    100.0   30 
 5/25/17 11:30p   50.6   53.7   50.6    75   43.0   0.0   WSW   0.00   2.0   WSW   50.6   50.3   50.3   45.8  29.721  0.00  0.00     0     0.00      0     0.0  0.00   0.0   0.300   0.000   75.9    34   45.5   74.6   0.000   685    2    100.0   30 
 5/26/17 12:00a   48.2   50.5   48.2    81   42.6   0.0   ---   0.00   0.0   ---   48.2   48.1   48.1   43.6  29.725  0.00  0.00     0     0.00      0     0.0  0.00   0.0   0.350   0.000   75.6    34   45.2   74.3   0.001   680    2    100.0   30